Location: Vancouver
(49.2500°N, 123.1330°W)
Time: 01:22:32
(UTC-08:00)

ERS-2 - Visible Passes

Search period start: 27 February 2017 00:00
Search period end: 09 March 2017 00:00
Orbit: 503 x 507 km, 98.5° (Epoch: 27 February)

Date Brightness Start Highest point End Pass type
(mag) Time Alt. Az. Time Alt. Az. Time Alt. Az.
27 Feb 5.0 03:36:47 10° NE 03:38:43 16° E 03:38:43 16° E visible
27 Feb 2.4 05:09:36 10° N 05:13:11 45° WNW 05:13:30 44° W visible
28 Feb 5.5 03:20:15 10° E 03:20:38 10° E 03:20:38 10° E visible
28 Feb 2.0 04:51:24 10° NNE 04:55:08 75° WNW 04:55:26 69° WSW visible
01 Mar 2.4 04:33:17 10° NNE 04:37:01 67° ESE 04:37:21 63° SE visible
01 Mar 4.1 06:08:25 10° NNW 06:10:16 13° WNW 06:12:06 10° W visible
02 Mar 3.3 04:15:19 10° NNE 04:18:51 40° E 04:19:16 38° ESE visible
02 Mar 3.6 05:49:37 10° NNW 05:52:20 20° WNW 05:54:04 15° W visible
03 Mar 4.2 03:57:29 10° NE 04:00:38 25° E 04:01:11 24° ESE visible
03 Mar 3.1 05:31:07 10° N 05:34:22 29° WNW 05:35:59 21° WSW visible
04 Mar 4.8 03:39:55 10° NE 03:42:22 16° E 03:43:07 16° ESE visible
04 Mar 2.4 05:12:45 10° N 05:16:20 45° WNW 05:17:54 28° SW visible
05 Mar 5.3 03:23:20 10° ENE 03:24:03 10° E 03:24:45 10° E visible
05 Mar 2.0 04:54:32 10° NNE 04:58:15 74° WNW 04:59:49 33° SSW visible
06 Mar 2.4 04:36:24 10° NNE 04:40:07 67° ESE 04:41:44 31° S visible
06 Mar 4.1 06:11:32 10° NNW 06:13:22 13° WNW 06:15:13 10° W visible
07 Mar 3.4 04:18:24 10° NNE 04:21:56 40° E 04:23:39 25° SSE visible
07 Mar 3.6 05:52:42 10° NNW 05:55:26 19° WNW 05:58:08 10° WSW visible
08 Mar 4.3 04:00:33 10° NE 04:03:42 25° E 04:05:33 17° SE visible
08 Mar 3.1 05:34:11 10° N 05:37:26 29° WNW 05:40:20 12° SW visible
